Location: Auckland
(36.8670°S, 174.7670°E)
Time: 21:52:28
(UTC+12:00)

S-56A Canister/Altair - Visible Passes

Search period start: 20 July 2019 00:00
Search period end: 30 July 2019 00:00
Orbit: 632 x 2500 km, 38.9° (Epoch: 19 July)

Date Brightness Start Highest point End Pass type
(mag) Time Alt. Az. Time Alt. Az. Time Alt. Az.
20 Jul 7.5 19:28:40 10° WNW 19:34:42 62° NNE 19:34:51 61° NNE visible
21 Jul 7.9 18:55:38 10° NW 19:02:08 56° NNE 19:04:04 35° E visible
21 Jul 10.2 21:00:40 10° W 21:01:31 14° W 21:01:31 14° W visible
22 Jul 8.3 18:22:33 10° NW 18:29:31 51° NNE 18:33:17 18° E visible
22 Jul 9.2 20:27:43 10° W 20:30:43 30° W 20:30:43 30° W visible
23 Jul 8.6 17:49:25 10° NW 17:56:52 47° NNE 18:02:05 10° E visible
23 Jul 7.9 19:54:40 10° W 19:59:54 62° W 19:59:54 62° W visible
24 Jul 7.4 19:21:31 10° WNW 19:28:09 84° SSW 19:29:05 62° ESE visible
25 Jul 7.8 18:48:15 10° WNW 18:55:32 90° SSW 18:58:16 30° ESE visible
25 Jul 9.9 20:54:03 10° W 20:55:42 19° WSW 20:55:42 19° WSW visible
26 Jul 8.0 18:14:56 10° WNW 18:22:52 85° NNE 18:27:26 15° ESE visible
26 Jul 8.9 20:21:01 10° W 20:24:52 37° WSW 20:24:52 37° WSW visible
27 Jul 7.7 19:47:53 10° W 19:54:02 69° SSW 19:54:02 69° SSW visible
28 Jul 7.7 19:14:37 10° W 19:21:43 73° S 19:23:12 49° ESE visible
28 Jul 10.5 21:20:14 10° WSW 21:20:38 12° WSW 21:20:38 12° WSW visible
29 Jul 8.0 18:41:15 10° W 18:49:02 75° S 18:52:22 25° ESE visible
29 Jul 9.6 20:47:15 10° WSW 20:49:48 25° WSW 20:49:48 25° WSW visible
